GW4499 Weather Reports


Display with metric or nautical units.
time (UTC)temp
F
wind
direction
speed
MPH
gust
MPH
rain 1hr
in
rain 24hr
in
rain mn
in
humidity
%
barometer
mb
20260901115519 61 0.0 0.0 0.00 0.01 0.00 92 1018.1
20260901114520 61 0.0 0.0 0.00 0.01 0.00 92 1018.1
20260901113519 61 0.0 0.0 0.00 0.01 0.00 92 1018.3
20260901112520 61 0.0 0.0 0.00 0.01 0.00 91 1018.3
20260901111520 62 0.0 0.0 0.00 0.01 0.00 91 1018.5
20260901110540 62 0.0 0.0 0.00 0.01 0.00 91 1018.5
20260901105519 62 0.0 0.0 0.00 0.01 0.00 90 1018.3
20260901104519 62 0.0 0.0 0.00 0.01 0.00 90 1018.5
20260901103520 62 0.0 0.0 0.00 0.01 0.00 90 1018.5
20260901102540 62 0.0 0.0 0.00 0.01 0.00 89 1018.8
20260901101519 62 0.0 0.0 0.00 0.01 0.00 89 1018.9
20260901100539 62 0.0 0.0 0.00 0.01 0.00 89 1018.9
20260901095519 62 0.0 0.0 0.00 0.01 0.00 89 1019.1
20260901094519 62 0.0 0.0 0.00 0.01 0.00 88 1019.1
20260901093520 62 0.0 0.0 0.00 0.01 0.00 87 1019.1
20260901092520 63 0.0 0.0 0.00 0.01 0.00 87 1019.8
20260901091520 62 0.0 0.0 0.00 0.01 0.00 87 1019.3
20260901090519 63 0.0 0.0 0.00 0.01 0.00 86 1019.3
20260901085519 63 0.0 0.0 0.00 0.01 0.00 85 1019.5
20260901084519 63 0.0 0.0 0.00 0.01 0.00 84 1019.6
20260901083559 64 0.0 0.0 0.00 0.01 0.00 83 1019.7
20260901082539 64 0.0 0.0 0.00 0.01 0.00 83 1019.9
20260901081519 64 0.0 0.0 0.00 0.01 0.00 82 1020.3
20260901080519 64 0.0 0.0 0.00 0.01 0.00 83 1020.3
20260901075519 64 0.0 0.0 0.00 0.01 0.00 84 1020.2
20260901074519 64 0.0 0.0 0.00 0.01 0.00 85 1020.2
20260901073519 64 0.0 0.0 0.00 0.01 0.00 86 1020.3
20260901072519 64 0.0 0.0 0.00 0.01 0.00 86 1020.2
20260901071519 64 0.0 2.0 0.00 0.01 0.00 86 1020.2
20260901070544 64 0.0 0.0 0.00 0.01 0.00 87 1020.3
20260901065539 64 0.0 0.0 0.00 0.01 0.00 87 1020.4
20260901064519 64 0.0 0.0 0.00 0.01 0.00 87 1019.7
20260901063519 64 0.0 0.0 0.00 0.01 0.00 87 1019.7
20260901062559 63 0.0 0.0 0.00 0.01 0.00 88 1019.0
20260901061519 64 0.0 0.0 0.00 0.01 0.00 88 1019.1
20260901060519 64 0.0 0.0 0.00 0.01 0.00 88 1019.2
20260901055519 64 0.0 0.0 0.00 0.01 0.01 88 1019.6
20260901054519 63 0.0 0.0 0.00 0.01 0.01 86 1019.8
20260901053519 63 0.0 0.0 0.00 0.01 0.01 87 1020.2
20260901052539 63 0.0 0.0 0.00 0.01 0.01 87 1019.8
20260901051519 63 0.0 0.0 0.00 0.01 0.01 87 1019.8
20260901050519 63 0.0 0.0 0.01 0.01 0.01 86 1019.7
20260901045519 64 0.0 0.0 0.01 0.01 0.01 85 1019.5
20260901044539 64 0.0 0.0 0.01 0.01 0.01 84 1019.6
20260901043519 65 0.0 0.0 0.01 0.01 0.01 80 1020.3
20260901042519 66 0.0 1.0 0.01 0.01 0.01 74 1020.8
20260901041540 68 135 2.0 7.0 0.01 0.01 0.01 68 1021.7
20260901040519 70 135 2.0 5.0 0.00 0.00 0.00 61 1022.1
20260901035519 71 158 2.0 9.0 0.00 0.00 0.00 57 1022.2
20260901034519 72 158 4.0 8.0 0.00 0.00 0.00 52 1022.0
20260901033519 72 0.0 1.0 0.00 0.00 0.00 51 1021.1
20260901032519 72 0.0 2.0 0.00 0.00 0.00 50 1019.6
20260901031519 72 315 1.0 3.0 0.00 0.00 0.00 50 1019.3
20260901030519 72 315 1.0 2.0 0.00 0.00 0.00 51 1019.2
20260901025519 72 0.0 1.0 0.00 0.00 0.00 53 1018.2
20260901024519 72 0.0 2.0 0.00 0.00 0.00 53 1018.3
20260901023519 73 0.0 3.0 0.00 0.00 0.00 52 1018.6
20260901022519 74 0.0 1.0 0.00 0.00 0.00 52 1018.0
20260901021519 75 0.0 1.0 0.00 0.00 0.00 48 1018.0
20260901020519 77 0.0 1.0 0.00 0.00 0.00 43 1018.4
20260901015519 78 0.0 2.0 0.00 0.00 0.00 40 1018.3
20260901014519 78 0.0 1.0 0.00 0.00 0.00 36 1018.0
20260901013519 79 0.0 2.0 0.00 0.00 0.00 34 1017.8
20260901012519 78 0.0 2.0 0.00 0.00 0.00 34 1017.4
20260901011519 78 0.0 1.0 0.00 0.00 0.00 35 1017.2
20260901010519 78 0.0 3.0 0.00 0.00 0.00 36 1017.3
20260901005518 79 0.0 0.0 0.00 0.00 0.00 36 1017.4
20260901004519 80 0.0 0.0 0.00 0.00 0.00 34 1017.4
20260901003518 80 0.0 0.0 0.00 0.00 0.00 34 1017.5
20260901002519 81 0.0 0.0 0.00 0.00 0.00 33 1017.8
20260901001519 81 0.0 1.0 0.00 0.00 0.00 32 1017.8
20260901000518 81 0.0 1.0 0.00 0.00 0.00 31 1017.9
20260831235519 82 0.0 2.0 0.00 0.00 0.00 32 1018.1
20260831234518 82 0.0 1.0 0.00 0.00 0.00 31 1017.9
20260831233519 82 135 1.0 5.0 0.00 0.00 0.00 31 1017.9
20260831232518 82 180 1.0 6.0 0.00 0.00 0.00 31 1018.1
20260831231520 82 158 1.0 3.0 0.00 0.00 0.00 31 1018.1
20260831230540 83 0.0 3.0 0.00 0.00 0.00 30 1018.2
20260831225521 83 158 2.0 4.0 0.00 0.00 0.00 29 1018.1
20260831224601 83 203 1.0 5.0 0.00 0.00 0.00 30 1018.1
20260831223521 83 158 1.0 3.0 0.00 0.00 0.00 31 1018.2
20260831222520 84 113 2.0 6.0 0.00 0.00 0.00 32 1018.3
20260831221520 84 158 3.0 6.0 0.00 0.00 0.00 31 1018.2
20260831220520 84 113 2.0 5.0 0.00 0.00 0.00 30 1018.4
20260831215540 85 203 2.0 8.0 0.00 0.00 0.00 31 1018.4
20260831214520 84 158 1.0 6.0 0.00 0.00 0.00 30 1018.3
20260831213520 85 113 2.0 5.0 0.00 0.00 0.00 29 1018.9
20260831212521 86 158 1.0 5.0 0.00 0.00 0.00 30 1019.5
20260831211520 86 158 2.0 5.0 0.00 0.00 0.00 29 1019.3
20260831210520 85 0.0 3.0 0.00 0.00 0.00 34 1019.6
20260831205520 84 180 1.0 5.0 0.00 0.00 0.00 32 1019.6
20260831204521 84 158 1.0 3.0 0.00 0.00 0.00 34 1019.8
20260831203521 84 113 3.0 6.0 0.00 0.00 0.00 33 1020.0
20260831202522 85 158 2.0 5.0 0.00 0.00 0.00 31 1020.1
20260831201540 84 113 2.0 6.0 0.00 0.00 0.00 34 1020.3
20260831200521 82 135 2.0 6.0 0.00 0.00 0.00 34 1020.1
20260831195540 82 113 1.0 4.0 0.00 0.00 0.00 34 1020.6
20260831194520 82 135 1.0 3.0 0.00 0.00 0.00 33 1020.7
20260831193520 81 203 2.0 5.0 0.00 0.00 0.00 38 1020.9
20260831192520 81 135 2.0 4.0 0.00 0.00 0.00 33 1020.9
20260831191520 81 113 2.0 6.0 0.00 0.00 0.00 33 1021.0
20260831190520 81 135 1.0 4.0 0.00 0.00 0.00 34 1021.1
20260831185520 81 158 1.0 4.0 0.00 0.00 0.00 35 1021.6
20260831184520 81 225 1.0 3.0 0.00 0.00 0.00 34 1021.5
20260831183520 82 135 1.0 6.0 0.00 0.01 0.00 32 1021.6
20260831182520 81 135 1.0 3.0 0.00 0.01 0.00 34 1021.7
20260831181520 80 0.0 2.0 0.00 0.01 0.00 32 1021.5
20260831180520 80 135 1.0 4.0 0.00 0.01 0.00 33 1021.6
20260831175520 81 0.0 4.0 0.00 0.01 0.00 34 1021.7
20260831174520 81 158 1.0 3.0 0.00 0.01 0.00 35 1021.8
20260831173520 81 0.0 4.0 0.00 0.01 0.00 32 1021.7
20260831172520 81 158 1.0 4.0 0.00 0.01 0.00 31 1021.8
20260831171520 80 0.0 1.0 0.00 0.01 0.00 33 1021.9
20260831170520 80 0.0 3.0 0.00 0.01 0.00 32 1022.0
20260831165520 80 158 1.0 4.0 0.00 0.01 0.00 33 1022.0
20260831164520 80 180 1.0 3.0 0.00 0.01 0.00 36 1022.1
20260831163520 80 0.0 1.0 0.00 0.01 0.00 40 1022.2
20260831162520 80 0.0 1.0 0.00 0.01 0.00 37 1022.0
20260831161520 80 0.0 1.0 0.00 0.01 0.00 38 1022.1
20260831160521 79 0.0 1.0 0.00 0.01 0.00 40 1021.8
20260831155520 79 0.0 2.0 0.00 0.01 0.00 43 1022.2
20260831154520 78 0.0 1.0 0.00 0.01 0.00 43 1021.9
20260831153520 77 0.0 1.0 0.00 0.01 0.00 45 1021.9
20260831152520 75 0.0 1.0 0.00 0.01 0.00 46 1021.5
20260831151520 73 0.0 2.0 0.00 0.01 0.00 55 1021.3
20260831150540 71 0.0 1.0 0.00 0.01 0.00 56 1021.1
20260831145520 70 0.0 2.0 0.00 0.01 0.00 54 1020.7
20260831144520 68 0.0 1.0 0.00 0.01 0.00 65 1020.4
20260831143520 65 0.0 0.0 0.00 0.01 0.00 67 1020.0
20260831142520 64 0.0 0.0 0.00 0.01 0.00 71 1019.8
20260831141520 63 0.0 0.0 0.00 0.01 0.00 74 1019.3
20260831140520 62 0.0 0.0 0.00 0.01 0.00 74 1019.2
20260831135520 61 0.0 0.0 0.00 0.01 0.00 77 1019.0
20260831134519 61 0.0 0.0 0.00 0.01 0.00 75 1018.9
20260831133520 60 0.0 0.0 0.00 0.01 0.00 77 1019.0
20260831132520 60 0.0 0.0 0.00 0.01 0.00 76 1019.2
20260831131520 60 0.0 1.0 0.00 0.01 0.00 78 1019.0
20260831130520 59 0.0 1.0 0.00 0.01 0.00 79 1018.5
20260831125539 59 0.0 0.0 0.00 0.01 0.00 81 1018.7
20260831124519 59 0.0 0.0 0.00 0.01 0.00 79 1018.4
20260831123539 59 0.0 1.0 0.00 0.01 0.00 78 1018.4
20260831122519 59 0.0 0.0 0.00 0.01 0.00 78 1018.2
20260831120600 59 0.0 0.0 0.00 0.01 0.00 78 1018.1